ATLAS 5 CENTAUR DEB, 44655

Orbit data source: Space-Track

ATLAS 5 CENTAUR DEB, 44655 is space debris in HEO originally from a launch on Wed, 17 Oct 2018 UTC launched from the Air Force Eastern Test Range (AFETR). Debris objects in space refer to the collection of defunct objects orbiting the Earth. Examples of debris include non-operational satellites, rocket bodies, and fragments generated from explosions, collisions, or faulty payload assembly.

Loading next visibility...
Identifier
44655, 2018-079R
Orbit
HEO
Country
Flag of USUS
Related business
Flag of USUnited Launch Alliance/Lockheed Martin (US)
Manufacturer
ULA Decatur
Mission
Spacecraft
Bus & Motor
Unknown
Mass
Unknown
Launch date (UTC)
2018-10-17 (8 years ago)
Launch vehicle
Unknown
Launch site
Air Force Eastern Test Range (AFETR)
Object type
Payload
Rocket body
Debris
Shape & HBR
Unknown shape, 1.1 m
Radar Cross Section
Medium (>0.1 m² and <1 m²)

Expand to show TLE details & history
Last TLE update: 3 days ago

TLE from 3 days ago
0 ATLAS 5 CENTAUR DEB
1 44655U 18079R   26233.12879304 -.00000167  00000-0  00000-0 0  9994
2 44655  13.9189  14.3255 4737460 351.0001   2.7236  1.83838160 52676
Epoch: 2026-08-21T03:05Z
TLE epoch observation values (Epoch: 2026-08-21T03:05:27.718Z)
Latitude
-0.00003°
Longitude
-1.48023°
Altitude
8,491.196 km
Speed
6.281 km/s
True Right ascension
00h 57m 22s
True Declination
0° 00' 00"
Sunlit
Object was in daylight at epoch
Visualization orbit readout
Latitude
Unknown
Longitude
Unknown
Altitude
Unknown
Speed
Unknown
Apparent Right ascension
Unknown
Apparent Declination
Unknown
Sunlit
N/A
Visualization observer readout
Local Sidereal Time
17:51:06
Azimuth
Unknown
Elevation
Unknown
Doppler factor
Unknown
Orbital elements
Apogee altitude
35,107.706 km
Perigee altitude
8,435.875 km
Semi-major axis
28,149.927 km
Eccentricity
0.47375
Inclination
13.9189°
RAAN
14.3255°
Arg. of periapsis
351.0001°
True anomaly
8.63977°
Mean anomaly
2.7236°
Eccentric anomaly
5.16914°
Mean motion
0.45954 °/min
Orbital period
783.38 mins
BSTAR
0
Loading maneuver chart data...
Computing Atmospheric mass density...

Documentation

Showing up to 5 results
|